Tracking 27107 objects as of 22-Mar-2023
HD Live streaming from Space Station
objects crossing your sky now

STARLINK-4325

Track STARLINK-4325 now!
10-day predictions
STARLINK-4325 is classified as:


NORAD ID: 53068
Int'l Code: 2022-077AB
Perigee: 567.9 km
Apogee: 572.5 km
Inclination: 97.7 °
Period: 95.9 minutes
Semi major axis: 6941 km
RCS: Unknown
Launch date: July 11, 2022
Source: United States (US)
Launch site: AIR FORCE WESTERN TEST RANGE (AFWTR)
Your satellite tracking list
Your tracking list is empty




NASA's NSSDC Master Catalog

Two Line Element Set (TLE):
1 53068U 22077AB  23080.50707099  .00000132  00000-0  14863-4 0  9992
2 53068  97.6546 262.8509 0003292  82.2443 277.9154 15.01253843 38257
Source of the keplerian elements: AFSPC